ANA733 RJOO-RJSS

Flight info

Callsign ANA733
Flight time N/A
Altitude 35000
Route MINAC4 MINAC DCT YOKKA DCT KCC Y88 TENRU Y15 OWLET OWLEEA
Aircraft A321/M-SDE3FGHIRWY/LB1

Departure

Time N/A
Airport Osaka Itami International Airport (RJOO)

Arrival

Time 2026-05-05 18:57
Airport Sendai Airport (RJSS)
Time Latitude Longitude Altitude Speed Heading
2026-05-05 18:36 36.78147 139.11304 35195 ft 553 kts 32°
2026-05-05 18:36 36.81083 139.14294 35193 ft 552 kts 32°
2026-05-05 18:36 36.87016 139.20310 35184 ft 551 kts 32°
2026-05-05 18:37 36.92985 139.26339 35173 ft 551 kts 32°
2026-05-05 18:37 36.98962 139.32389 35135 ft 553 kts 32°
2026-05-05 18:38 37.04871 139.38399 34549 ft 558 kts 32°
2026-05-05 18:38 37.07934 139.41506 33309 ft 570 kts 32°
2026-05-05 18:38 37.11031 139.44651 32463 ft 573 kts 32°
2026-05-05 18:39 37.14113 139.47799 31843 ft 570 kts 32°
2026-05-05 18:39 37.17153 139.50920 31316 ft 567 kts 32°
2026-05-05 18:39 37.20088 139.53935 30774 ft 563 kts 33°
2026-05-05 18:39 37.23125 139.57049 30200 ft 561 kts 33°
2026-05-05 18:40 37.26150 139.60149 29579 ft 558 kts 33°
2026-05-05 18:40 37.29144 139.63223 28995 ft 552 kts 33°
2026-05-05 18:40 37.32068 139.66229 28531 ft 547 kts 33°
2026-05-05 18:40 37.34990 139.69235 28153 ft 538 kts 33°
2026-05-05 18:41 37.37725 139.72062 27788 ft 532 kts 34°
2026-05-05 18:41 37.40351 139.75354 27263 ft 535 kts 46°
2026-05-05 18:41 37.42522 139.79136 26739 ft 533 kts 54°
2026-05-05 18:41 37.44554 139.83022 26223 ft 528 kts 54°
2026-05-05 18:42 37.46559 139.86871 25739 ft 523 kts 54°
2026-05-05 18:42 37.48543 139.90682 25264 ft 518 kts 54°
2026-05-05 18:42 37.50511 139.94467 24748 ft 515 kts 54°
2026-05-05 18:42 37.52467 139.98231 24275 ft 511 kts 54°
2026-05-05 18:43 37.54402 140.01959 23815 ft 506 kts 54°
2026-05-05 18:43 37.56321 140.05652 23308 ft 501 kts 54°
2026-05-05 18:43 37.58224 140.09311 22820 ft 496 kts 54°
2026-05-05 18:43 37.60100 140.12923 22291 ft 491 kts 54°
2026-05-05 18:44 37.61956 140.16502 21693 ft 484 kts 54°
2026-05-05 18:44 37.63782 140.20033 20951 ft 477 kts 54°
2026-05-05 18:44 37.65574 140.23508 20254 ft 468 kts 54°
2026-05-05 18:44 37.67333 140.26926 19588 ft 460 kts 54°
2026-05-05 18:45 37.69059 140.30282 18926 ft 452 kts 53°
2026-05-05 18:45 37.70742 140.33554 18295 ft 443 kts 54°
2026-05-05 18:45 37.72393 140.36766 17405 ft 430 kts 54°
2026-05-05 18:45 37.74004 140.39898 16491 ft 418 kts 53°
2026-05-05 18:46 37.75563 140.42935 15646 ft 405 kts 53°
2026-05-05 18:46 37.77070 140.45871 14836 ft 393 kts 52°
2026-05-05 18:46 37.78514 140.48742 14043 ft 381 kts 53°
2026-05-05 18:46 37.79870 140.51556 13160 ft 370 kts 54°
2026-05-05 18:47 37.81166 140.54312 12272 ft 359 kts 54°
2026-05-05 18:47 37.82420 140.56997 11370 ft 350 kts 54°
2026-05-05 18:47 37.83615 140.59562 11091 ft 324 kts 53°
2026-05-05 18:47 37.84731 140.61954 10611 ft 309 kts 53°
2026-05-05 18:48 37.85820 140.64262 9891 ft 304 kts 52°
2026-05-05 18:48 37.86910 140.66550 9076 ft 302 kts 51°
2026-05-05 18:48 37.87997 140.68837 8597 ft 305 kts 52°
2026-05-05 18:48 37.89027 140.71047 8188 ft 303 kts 52°
2026-05-05 18:49 37.90073 140.73326 7773 ft 298 kts 52°
2026-05-05 18:49 37.91088 140.75561 7360 ft 287 kts 52°
2026-05-05 18:49 37.92059 140.77706 6992 ft 277 kts 51°
2026-05-05 18:49 37.93008 140.79791 6618 ft 268 kts 51°
2026-05-05 18:50 37.93929 140.81800 6246 ft 260 kts 50°
2026-05-05 18:50 37.94817 140.83736 5876 ft 249 kts 50°
2026-05-05 18:50 37.95671 140.85599 5535 ft 240 kts 50°
2026-05-05 18:50 37.96474 140.87354 5237 ft 225 kts 49°
2026-05-05 18:51 37.97229 140.89012 4925 ft 211 kts 49°
2026-05-05 18:51 37.97959 140.90518 4660 ft 197 kts 42°
2026-05-05 18:51 37.98857 140.91765 4380 ft 188 kts 30°
2026-05-05 18:51 37.99889 140.92723 4117 ft 181 kts 20°
2026-05-05 18:52 38.00946 140.93590 3878 ft 181 kts 20°
2026-05-05 18:52 38.01997 140.94460 3627 ft 180 kts 21°
2026-05-05 18:52 38.03046 140.95332 3374 ft 180 kts 21°
2026-05-05 18:52 38.04056 140.96183 3127 ft 170 kts 21°
2026-05-05 18:53 38.05025 140.96997 2900 ft 165 kts 21°
2026-05-05 18:53 38.05975 140.97791 2684 ft 162 kts 21°
2026-05-05 18:53 38.06906 140.98570 2449 ft 154 kts 21°
2026-05-05 18:53 38.07773 140.99301 2232 ft 146 kts 21°
2026-05-05 18:54 38.08600 140.99996 2049 ft 141 kts 20°
2026-05-05 18:54 38.09420 141.00678 1867 ft 142 kts 21°
2026-05-05 18:54 38.10297 141.01170 1682 ft 135 kts
2026-05-05 18:54 38.11211 141.01320 1517 ft 129 kts 352°
2026-05-05 18:55 38.12101 141.01172 1378 ft 131 kts 338°
2026-05-05 18:55 38.12939 141.00724 1247 ft 131 kts 326°
2026-05-05 18:55 38.13661 141.00006 1089 ft 135 kts 312°
2026-05-05 18:55 38.14219 140.99032 940 ft 139 kts 298°
2026-05-05 18:56 38.14534 140.97874 736 ft 144 kts 283°
2026-05-05 18:56 38.14564 140.96567 512 ft 154 kts 266°
2026-05-05 18:56 38.14414 140.95255 315 ft 145 kts 264°
2026-05-05 18:56 38.14298 140.93957 148 ft 150 kts 264°
2026-05-05 18:57 38.14160 140.92654 27 ft 142 kts 264°
2026-05-05 18:57 38.14051 140.91561 16 ft 98 kts 262°
2026-05-05 18:57 38.13984 140.90922 18 ft 48 kts 262°
2026-05-05 18:57 38.13948 140.90585 17 ft 27 kts 263°
2026-05-05 18:58 38.13894 140.90465 16 ft 14 kts 193°
2026-05-05 18:58 38.13827 140.90474 13 ft 15 kts 162°
2026-05-05 18:58 38.13781 140.90574 12 ft 14 kts 86°
2026-05-05 18:58 38.13793 140.90690 13 ft 13 kts 82°
2026-05-05 18:59 38.13805 140.90801 13 ft 12 kts 83°
2026-05-05 18:59 38.13814 140.90907 13 ft 12 kts 83°
2026-05-05 18:59 38.13827 140.91038 13 ft 20 kts 83°
2026-05-05 18:59 38.13845 140.91243 15 ft 24 kts 82°
2026-05-05 19:00 38.13870 140.91455 13 ft 24 kts 81°
2026-05-05 19:00 38.13893 140.91663 14 ft 23 kts 82°
2026-05-05 19:00 38.13915 140.91868 13 ft 24 kts 82°
2026-05-05 19:00 38.13936 140.92072 13 ft 23 kts 83°
2026-05-05 19:01 38.13956 140.92275 13 ft 23 kts 82°
2026-05-05 19:01 38.13977 140.92477 13 ft 23 kts 83°
2026-05-05 19:01 38.13997 140.92678 13 ft 23 kts 82°
2026-05-05 19:01 38.14015 140.92855 15 ft 14 kts 82°
2026-05-05 19:02 38.14028 140.92978 13 ft 14 kts 82°
2026-05-05 19:02 38.14040 140.93091 13 ft 12 kts 83°
2026-05-05 19:02 38.14012 140.93156 12 ft 8 kts 162°
2026-05-05 19:02 38.13957 140.93165 12 ft 8 kts 173°
2026-05-05 19:03 38.13918 140.93171 12 ft 1 kts 172°
2026-05-05 19:03 38.13916 140.93172 13 ft 0 kts 172°